DW9006 Weather Reports


time (UTC)temp
C
wind
direction
speed
KPH
gust
KPH
rain 1hr
cm
rain 24hr
cm
rain mn
cm
humidity
%
barometer
mb
20211017144613 14 67 0.0 12.9 0.00 0.00 0.00 60 1024.6
20211017143102 14 30 0.0 9.7 0.00 0.00 0.00 64 1024.5
20211017141608 13 317 0.0 4.8 0.00 0.00 0.00 71 1024.3
20211017140020 12 318 0.0 6.4 0.00 0.00 0.00 72 1024.2
20211017134552 12 17 0.0 6.4 0.00 0.00 0.00 75 1024.1
20211017133111 11 25 0.0 1.6 0.00 0.00 0.00 81 1024.1
20211017131619 10 346 0.0 0.0 0.00 0.00 0.00 81 1024.0
20211017090057 8 292 0.0 0.0 0.00 0.05 0.00 91 1022.4
20211017084558 8 292 0.0 0.0 0.00 0.20 0.00 91 1022.4
20211017083109 8 292 0.0 0.0 0.00 0.20 0.00 91 1022.3
20211017081605 8 292 0.0 0.0 0.00 0.20 0.00 91 1022.1
20211017080137 7 292 0.0 0.0 0.00 0.20 0.00 92 1022.1
20211017074546 7 292 0.0 0.0 0.00 0.25 0.20 92 1022.2
20211017073023 7 292 0.0 0.0 0.00 0.25 0.20 93 1022.2
20211017071528 7 292 0.0 0.0 0.00 0.25 0.20 92 1022.2
20211017070121 8 292 0.0 0.0 0.00 0.25 0.20 92 1022.3
20211017064631 8 292 0.0 0.0 0.00 0.25 0.20 91 1022.2
20211017063100 8 292 0.0 0.0 0.00 0.25 0.20 92 1022.2
20211017061738 8 292 0.0 0.0 0.00 0.25 0.20 91 1022.2
20211017060050 8 292 0.0 0.0 0.00 0.25 0.20 92 1022.1
20211017054613 8 292 0.0 0.0 0.00 0.25 0.20 92 1021.9
20211017053110 8 292 0.0 0.0 0.00 0.25 0.20 91 1021.9
20211017051632 8 292 0.0 0.0 0.00 0.25 0.20 90 1021.8
20211017050058 8 292 0.0 0.0 0.00 0.25 0.20 89 1021.8
20211017044611 8 292 0.0 0.0 0.00 0.25 0.20 89 1021.8
20211017043107 9 292 0.0 0.0 0.00 0.25 0.20 88 1021.8
20211017041543 9 292 0.0 0.0 0.00 0.25 0.20 88 1021.8
20211017040110 9 292 0.0 0.0 0.00 0.25 0.20 87 1021.8
20211017034538 9 292 0.0 0.0 0.00 0.25 0.20 89 1021.7
20211017033024 9 292 0.0 0.0 0.00 0.25 0.20 87 1021.7
20211017011513 11 292 0.0 0.0 0.00 0.25 0.20 82 1020.9
20211017010010 11 292 0.0 0.0 0.00 0.25 0.20 80 1020.9
20211017004517 12 292 0.0 0.0 0.00 0.25 0.20 79 1020.8
20211017003101 12 292 0.0 0.0 0.00 0.25 0.20 80 1020.6
20211017001748 13 292 0.0 0.0 0.00 0.25 0.20 72 1020.5
20211017000026 13 292 0.0 0.0 0.00 0.25 0.20 70 1020.1
20211016234528 14 292 0.0 0.0 0.00 0.25 0.20 65 1020.0
20211016233100 15 292 0.0 0.0 0.00 0.25 0.20 62 1019.9
20211016231635 16 269 0.0 0.0 0.00 0.25 0.20 53 1019.8
20211016230055 17 304 0.0 3.2 0.00 0.25 0.20 50 1019.5
20211016224610 17 294 0.0 0.0 0.00 0.25 0.20 48 1019.3
20211016223059 17 325 0.0 16.1 0.00 0.25 0.20 46 1019.3
20211016221545 18 304 0.0 1.6 0.00 0.25 0.20 45 1019.2
20211016220055 18 331 0.0 9.7 0.00 0.25 0.20 44 1019.0
20211016214624 19 317 0.0 11.3 0.00 0.25 0.20 43 1018.9
20211016213123 19 307 0.0 6.4 0.00 0.25 0.20 44 1018.8
20211016211547 19 311 0.0 8.0 0.00 0.25 0.20 43 1018.7
20211016210046 19 193 1.6 14.5 0.00 0.25 0.20 43 1018.7
20211016204546 19 310 3.2 17.7 0.00 0.25 0.20 40 1018.6
20211016203033 20 290 0.0 9.7 0.00 0.25 0.20 43 1018.5
20211016201526 20 281 0.0 12.9 0.00 0.25 0.20 46 1018.4
20211016200106 20 305 0.0 9.7 0.00 0.25 0.20 46 1018.4
20211016194551 20 269 0.0 16.1 0.00 0.25 0.20 45 1018.4
20211016151514 17 57 0.0 9.7 0.00 0.25 0.20 75 1019.0
20211016150055 16 57 0.0 12.9 0.00 0.25 0.20 77 1019.1